Location: Ch�tillon
(48.8024°N, 2.2935°E)
Time: 18:56:55
(UTC+00:00)

RS-15 - Pass Details

Date: 02 July 2022
Orbit: 1881 x 2163 km, 64.8° (Epoch: 11 August)

Event Time Altitude Azimuth Distance (km) Brightness Sun altitude
Rises 01:19:05 0° 321° (NW) 5,699 10.9 -15.7°
Reaches altitude 10° 01:23:17 10° 310° (NW) 4,683 10.3 -15.5°
Maximum altitude 01:32:40 27° 260° (W) 3,421 9.0 -14.9°
Enters shadow 01:39:24 16° 218° (SW) 4,054 9.1 -14.5°
